Regional Weather Roundup
Issued by NWS

Home | Current Version | Previous Version | Graphics & Text | Print | Product List | Glossary On
Versions: 1 2 3 4 5 6 7 8 9 10 11 12 13 14 15 16 17 18 19 20 21 22 23 24 25 26 27 28 29 30 31 32 33 34 35 36 37 38 39 40 41 42 43 44 45 46 47 48 49 50
000
ASUS43 KDTX 310210
RWRMI
MICHIGAN HOURLY REGIONAL WEATHER ROUNDUP
NATIONAL WEATHER SERVICE DETROIT/PONTIAC MI
1000 PM EDT SUN AUG 30 2015

NOTE: "FAIR" INDICATES FEW OR NO CLOUDS BELOW 12,000 FEET WITH NO
SIGNIFICANT WEATHER AND/OR OBSTRUCTION TO VISIBILITY.

MIZ047>049-052>055-059>063-066>070-074>076-081>083-310300-
SOUTHEAST LOWER MICHIGAN

CITY           SKY/WX    TMP DP  RH WIND       PRES   REMARKS
ADRIAN         CLEAR     69  67  93 CALM      30.05R
ALMA           FOG       65  64  97 CALM      30.04R VSB 1/2
ANN ARBOR      CLEAR     68  67  96 W3        30.05R FOG
BAD AXE        MOCLDY    64  63  97 CALM      30.04R FOG
CARO           FOG       63  63  99 CALM      30.03S VSB 1/4
DETROIT CITY   MOCLDY    74  68  81 CALM      30.04R
DETROIT        MOCLDY    74  70  87 CALM      30.04R
FLINT          MOCLDY    69  65  86 CALM      30.05R FOG
GROSSE ILE     PTCLDY    73  70  88 CALM      30.03R
HILLSDALE      FOG       67  67 100 CALM      30.07R VSB 1/2
HOWELL         CLEAR     69  66  90 CALM      30.05R

CITY           SKY/WX    TMP DP  RH WIND       PRES   REMARKS
JACKSON        CLEAR     68  66  93 CALM      30.06R FOG
LAMBERTVILLE   CLEAR     71  67  88 CALM      30.04S FOG
LANSING        PTCLDY    68  65  90 CALM      30.05R
LAPEER         FOG       66  66 100 CALM      30.05R VSB 3/4
MASON          CLEAR     68  65  90 CALM      30.06R FOG
MONROE         CLEAR     70  68  95 CALM      30.03R
MT. CLEMENS    PTCLDY    70  67  90 CALM      30.02R
PONTIAC        CLEAR     70  66  87 CALM      30.05R
PORT HOPE        N/A     66  65  96 CALM      30.01R
PORT HURON     FOG       66  66 100 CALM      30.03S VSB 1/4
TRI CITIES     CLEAR     70  65  84 SW3       30.03R
MIDLAND        FOG       66  65  96 CALM      30.02R VSB 1/4
TROY           MOCLDY    76  68  74 CALM      30.06R
SAGINAW HB     CLEAR     66  64  94 CALM      30.03R FOG
$$
MIZ043>046-050>051-056>058-064>065-071>073-077>080-310300-
SOUTHWEST LOWER MICHIGAN

CITY           SKY/WX    TMP DP  RH WIND       PRES   REMARKS
BATTLE CREEK   CLEAR     69  65  86 CALM      30.06R
BENTON HARBOR  FOG       64  62  93 CALM      30.05R VSB 3/4
BIG RAPIDS     CLEAR     64  63  96 CALM      30.04R FOG
COLDWATER      CLEAR     67  67 100 CALM      30.06R FOG
FREMONT        FAIR      63  63 100 CALM      30.04R FOG
HOLLAND        MOCLDY    66  63  90 CALM      30.06R FOG
GRAND RAPIDS   CLEAR     67  64  90 W6        30.05R
IONIA          FAIR      67  63  86 W6        30.04R
KALAMAZOO      CLEAR     67  63  87 W3        30.06R
LUDINGTON      CLEAR     64  61  88 SW3       30.03R
MARSHALL       FOG       65  63  96 CALM      30.06R VSB 1/4
MOUNT PLEASANT FOG       66  64  93 CALM      30.03R VSB 1/2
MUSKEGON       PTCLDY    66  62  87 CALM      30.05R FOG
SOUTH HAVEN      N/A     63  61  95 CALM      30.05S FOG
$$
MIZ016>042-310300-
NORTHERN LOWER MICHIGAN

CITY           SKY/WX    TMP DP  RH WIND       PRES   REMARKS
ALPENA         CLEAR     64  62  93 CALM      29.99R
BEAVER ISLAND  PTCLDY    65  62  90 SW9       29.97R
BELLAIRE       PTCLDY    64  62  93 CALM      30.00R FOG
CADILLAC       CLEAR     65  63  94 SW3       30.03S
CHARLEVOIX     PTCLDY    66  64  93 S6        30.01R
FRANKFORT      CLEAR     65  63  91 SW3       30.01R
GAYLORD        PTCLDY    66  64  93 SW3       30.01R
GRAYLING       CLEAR     62  61  95 CALM      30.02S FOG
HARBOR SPRINGS PTCLDY    65  64  94 W3        29.98R
HOUGHTON LAKE  CLEAR     68  64  87 SW7       30.03R
MANISTEE       CLEAR     63  57  82 CALM      30.02S
OSCODA         PTCLDY    67  65  93 SW7       29.99S
PELLSTON       PTCLDY    65  62  90 SW5       29.98R
ROGERS CITY    CLEAR     64  61  91 CALM      29.99S
TRAVERSE CITY  CLEAR     68  62  81 S3        29.99R
$$
MIZ007>008-015-310300-
EASTERN UPPER MICHIGAN

CITY           SKY/WX    TMP DP  RH WIND       PRES   REMARKS
KINROSS        CLEAR     63  63 100 CALM      29.95S
MACKINAC ISLAN PTCLDY    66  63  89 SW8       29.97R
NEWBERRY       MOCLDY    63  62  97 SW10G16   29.94S
S. S. MARIE    CLEAR     64  60  87 CALM      29.95R
MUNISING         N/A     71  63  75 S10       29.91R
$$
MIZ004>006-011>014-085-310300-
CENTRAL UPPER MICHIGAN

CITY           SKY/WX    TMP DP  RH WIND       PRES   REMARKS
MANISTIQUE     CLEAR     63  62  96 SW9       29.95S FOG
ESCANABA       CLEAR     64  61  88 MISG      29.94R
MENOMINEE      CLEAR     66  61  82 SW8       29.96R
SAWYER-GWINN   CLEAR     68  63  83 S6        29.94
$$
MIZ001>003-009>011-084-310300-
WESTERN UPPER MICHIGAN

CITY           SKY/WX    TMP DP  RH WIND       PRES   REMARKS
IRON MOUNTAIN  CLEAR     66  63  90 S6        29.94R
HOUGHTON       FAIR      67  61  81 NW5       29.88R
IRONWOOD       CLEAR     72  64  78 SW13      29.89R
$$

ABBREVIATIONS USED IN REMARKS
   TC - TEMPERATURE IN CELSIUS
  WCI - WIND CHILL INDEX
   HX - HEAT INDEX
  VSB - VISIBILITY




USA.gov is the U.S. government's official web portal to all federal, state and local government web resources and services.